TimeMDT,TemperatureF,Dew PointF,Humidity,Sea Level PressureIn,VisibilityMPH,Wind Direction,Wind SpeedMPH,Gust SpeedMPH,PrecipitationIn,Events,Conditions,WindDirDegrees,DateUTC
12:15 AM,59.0,15.8,19,30.15,10.0,West,17.3,24.2,N/A,,Clear,280,2013-03-15 06:15:00
12:35 AM,60.8,15.8,17,30.15,10.0,West,16.1,-,N/A,,Clear,280,2013-03-15 06:35:00
12:55 AM,59.0,14.0,17,30.13,10.0,WNW,16.1,-,N/A,,Clear,290,2013-03-15 06:55:00
1:15 AM,60.8,14.0,16,30.12,10.0,West,24.2,28.8,N/A,,Clear,280,2013-03-15 07:15:00
1:34 AM,60.8,10.4,14,30.11,10.0,WNW,20.7,36.8,N/A,,Clear,290,2013-03-15 07:34:00
1:55 AM,60.8,12.2,15,30.11,10.0,NW,9.2,18.4,N/A,,Clear,310,2013-03-15 07:55:00
2:15 AM,60.8,10.4,14,30.09,10.0,West,26.5,29.9,N/A,,Clear,270,2013-03-15 08:15:00
2:35 AM,60.8,10.4,14,30.09,10.0,West,17.3,33.4,N/A,,Clear,270,2013-03-15 08:35:00
2:55 AM,60.8,12.2,15,30.08,10.0,West,12.7,19.6,N/A,,Clear,260,2013-03-15 08:55:00
3:15 AM,60.8,10.4,14,30.08,10.0,West,16.1,23.0,N/A,,Clear,270,2013-03-15 09:15:00
3:34 AM,60.8,12.2,15,30.07,10.0,West,23.0,33.4,N/A,,Clear,270,2013-03-15 09:34:00
3:55 AM,60.8,15.8,17,30.05,10.0,West,19.6,24.2,N/A,,Clear,270,2013-03-15 09:55:00
4:15 AM,60.8,15.8,17,30.06,10.0,West,8.1,-,N/A,,Clear,280,2013-03-15 10:15:00
4:35 AM,59.0,17.6,20,30.04,10.0,West,20.7,-,N/A,,Clear,270,2013-03-15 10:35:00
4:55 AM,62.6,14.0,15,30.05,10.0,West,24.2,31.1,N/A,,Clear,270,2013-03-15 10:55:00
5:15 AM,60.8,14.0,16,30.05,10.0,West,18.4,-,N/A,,Clear,270,2013-03-15 11:15:00
5:34 AM,60.8,14.0,16,30.06,10.0,West,12.7,-,N/A,,Clear,260,2013-03-15 11:34:00
5:55 AM,60.8,14.0,16,30.06,10.0,WSW,15.0,19.6,N/A,,Clear,240,2013-03-15 11:55:00
6:46 AM,60.8,12.2,15,30.03,40.0,WSW,19.6,28.8,N/A,,Mostly Cloudy,240,2013-03-15 12:46:00
7:55 AM,59.0,10.4,15,30.05,50.0,SW,16.1,25.3,N/A,,Mostly Cloudy,230,2013-03-15 13:55:00
8:55 AM,62.6,12.2,14,30.03,50.0,SSW,15.0,21.9,N/A,,Mostly Cloudy,210,2013-03-15 14:55:00
9:48 AM,64.4,10.4,12,30.02,70.0,SSW,11.5,-,N/A,,Mostly Cloudy,200,2013-03-15 15:48:00
10:48 AM,71.6,10.4,9,29.99,80.0,SSW,13.8,27.6,N/A,,Mostly Cloudy,210,2013-03-15 16:48:00
11:48 AM,71.6,8.6,9,29.97,80.0,SSW,15.0,23.0,N/A,,Mostly Cloudy,210,2013-03-15 17:48:00
12:45 PM,71.6,8.6,9,29.94,50.0,SSW,12.7,18.4,N/A,,Mostly Cloudy,200,2013-03-15 18:45:00
1:45 PM,71.6,8.6,9,29.94,50.0,Calm,Calm,-,N/A,,Mostly Cloudy,0,2013-03-15 19:45:00
2:48 PM,77.0,6.8,7,29.92,50.0,WSW,23.0,29.9,N/A,,Mostly Cloudy,250,2013-03-15 20:48:00
3:58 PM,73.4,8.6,8,29.91,50.0,West,23.0,34.5,N/A,,Mostly Cloudy,260,2013-03-15 21:58:00
4:47 PM,71.6,10.4,9,29.91,60.0,West,23.0,29.9,N/A,,Overcast,260,2013-03-15 22:47:00
5:45 PM,68.0,12.2,12,29.91,50.0,West,17.3,24.2,N/A,,Mostly Cloudy,270,2013-03-15 23:45:00
6:45 PM,66.2,12.2,12,29.91,50.0,SW,10.4,16.1,N/A,,Mostly Cloudy,230,2013-03-16 00:45:00
7:48 PM,64.4,12.2,13,29.92,30.0,WSW,21.9,29.9,N/A,,Mostly Cloudy,240,2013-03-16 01:48:00
8:45 PM,64.4,14.0,14,29.92,30.0,WSW,19.6,26.5,N/A,,Mostly Cloudy,240,2013-03-16 02:45:00
9:48 PM,62.6,15.8,16,29.92,30.0,SW,18.4,24.2,N/A,,Mostly Cloudy,220,2013-03-16 03:48:00
11:15 PM,59.0,19.4,22,29.93,10.0,SW,8.1,16.1,N/A,,Clear,230,2013-03-16 05:15:00
11:35 PM,55.4,21.2,26,29.93,10.0,WNW,11.5,-,N/A,,Clear,290,2013-03-16 05:35:00
11:54 PM,55.4,23.0,29,29.93,10.0,West,15.0,-,N/A,,Scattered Clouds,270,2013-03-16 05:54:00